| time (UTC) | temp F | wind direction | speed MPH | gust MPH | rain 1hr in | rain 24hr in | rain mn in | humidity % | barometer mb |
| 20260504010220 | 54 | 5 | 1.0 | 6.0 | 0.00 | 0.00 | 0.00 | 51 | 1005.0 |
| 20260504005719 | 53 | 50 | 0.0 | 3.0 | 0.00 | 0.00 | 0.00 | 55 | 1005.0 |
| 20260504005219 | 53 | 57 | 0.0 | 4.0 | 0.00 | 0.00 | 0.00 | 52 | 1005.0 |
| 20260504004719 | 54 | 90 | 5.0 | 10.0 | 0.00 | 0.00 | 0.00 | 50 | 1005.0 |
| 20260504004219 | 53 | 350 | 4.0 | 4.0 | 0.00 | 0.00 | 0.00 | 50 | 1005.0 |
| 20260504003719 | 53 | 173 | 8.0 | 5.0 | 0.00 | 0.00 | 0.00 | 52 | 1005.0 |
| 20260504003219 | 53 | 185 | 2.0 | 7.0 | 0.00 | 0.00 | 0.00 | 51 | 1005.0 |
| 20260504002719 | 53 | 68 | 4.0 | 5.0 | 0.00 | 0.00 | 0.00 | 52 | 1005.0 |
| 20260504002220 | 53 | 257 | 0.0 | 5.0 | 0.00 | 0.00 | 0.00 | 54 | 1005.0 |
| 20260504001720 | 53 | 98 | 6.0 | 7.0 | 0.00 | 0.00 | 0.00 | 52 | 1005.0 |
| 20260504001219 | 53 | 82 | 4.0 | 4.0 | 0.00 | 0.00 | 0.00 | 54 | 1005.0 |
| 20260504000720 | 53 | 134 | 6.0 | 2.0 | 0.00 | 0.00 | 0.00 | 54 | 1005.0 |
| 20260504000219 | 53 | 242 | 2.0 | 5.0 | 0.00 | 0.00 | 0.00 | 54 | 1005.0 |
| 20260503235720 | 53 | 275 | 5.0 | 6.0 | 0.00 | 0.00 | 0.00 | 55 | 1006.0 |
| 20260503235220 | 53 | 37 | 1.0 | 11.0 | 0.00 | 0.00 | 0.00 | 55 | 1006.0 |
| 20260503234719 | 52 | 225 | 2.0 | 6.0 | 0.00 | 0.00 | 0.00 | 57 | 1006.0 |
| 20260503234220 | 52 | 133 | 0.0 | 5.0 | 0.00 | 0.00 | 0.00 | 62 | 1006.0 |
| 20260503233720 | 52 | 258 | 1.0 | 5.0 | 0.00 | 0.00 | 0.00 | 59 | 1006.0 |
| 20260503233220 | 51 | 240 | 5.0 | 3.0 | 0.00 | 0.00 | 0.00 | 63 | 1006.0 |
| 20260503232719 | 51 | 354 | 5.0 | 4.0 | 0.00 | 0.00 | 0.00 | 63 | 1006.0 |
| 20260503232219 | 51 | 58 | 0.0 | 1.0 | 0.00 | 0.00 | 0.00 | 63 | 1006.0 |
| 20260503231719 | 51 | 27 | 0.0 | 5.0 | 0.00 | 0.00 | 0.00 | 64 | 1006.0 |
| 20260503231221 | 51 | 77 | 3.0 | 5.0 | 0.00 | 0.00 | 0.00 | 64 | 1006.0 |
| 20260503230719 | 51 | 210 | 4.0 | 6.0 | 0.00 | 0.00 | 0.00 | 64 | 1006.0 |
| 20260503230220 | 51 | 44 | 0.0 | 1.0 | 0.00 | 0.00 | 0.00 | 63 | 1006.0 |
| 20260503225720 | 52 | 38 | 1.0 | 5.0 | 0.00 | 0.00 | 0.00 | 60 | 1006.0 |
| 20260503225219 | 52 | 49 | 1.0 | 7.0 | 0.00 | 0.00 | 0.00 | 60 | 1006.0 |
| 20260503224721 | 52 | 22 | 2.0 | 6.0 | 0.00 | 0.00 | 0.00 | 61 | 1006.0 |
| 20260503224219 | 52 | 289 | 3.0 | 5.0 | 0.00 | 0.00 | 0.00 | 58 | 1006.0 |
| 20260503223719 | 52 | 3 | 1.0 | 10.0 | 0.00 | 0.00 | 0.00 | 58 | 1006.0 |
| 20260503223219 | 52 | 343 | 0.0 | 4.0 | 0.00 | 0.00 | 0.00 | 61 | 1006.0 |
| 20260503222720 | 52 | 50 | 2.0 | 6.0 | 0.00 | 0.00 | 0.00 | 61 | 1006.0 |
| 20260503222219 | 52 | 61 | 2.0 | 4.0 | 0.00 | 0.00 | 0.00 | 61 | 1006.0 |
| 20260503221719 | 52 | 50 | 1.0 | 9.0 | 0.00 | 0.00 | 0.00 | 61 | 1006.0 |
| 20260503221220 | 53 | 253 | 5.0 | 10.0 | 0.00 | 0.00 | 0.00 | 56 | 1006.0 |
| 20260503220719 | 53 | 309 | 4.0 | 5.0 | 0.00 | 0.00 | 0.00 | 55 | 1006.0 |
| 20260503220220 | 53 | 266 | 3.0 | 4.0 | 0.00 | 0.00 | 0.00 | 57 | 1006.0 |
| 20260503215719 | 53 | 59 | 7.0 | 9.0 | 0.00 | 0.00 | 0.00 | 56 | 1006.0 |
| 20260503215220 | 53 | 54 | 3.0 | 4.0 | 0.00 | 0.00 | 0.00 | 57 | 1006.0 |
| 20260503214719 | 52 | 137 | 5.0 | 6.0 | 0.00 | 0.00 | 0.00 | 57 | 1006.0 |
| 20260503214219 | 53 | 33 | 4.0 | 9.0 | 0.00 | 0.00 | 0.00 | 57 | 1006.0 |
| 20260503213719 | 53 | 229 | 6.0 | 11.0 | 0.00 | 0.00 | 0.00 | 57 | 1006.0 |
| 20260503213220 | 53 | 10 | 3.0 | 4.0 | 0.00 | 0.00 | 0.00 | 54 | 1006.0 |
| 20260503212719 | 54 | 298 | 5.0 | 11.0 | 0.00 | 0.00 | 0.00 | 54 | 1006.0 |
| 20260503212221 | 54 | 289 | 8.0 | 9.0 | 0.00 | 0.00 | 0.00 | 53 | 1006.0 |
| 20260503211719 | 54 | 220 | 4.0 | 8.0 | 0.00 | 0.00 | 0.00 | 54 | 1006.0 |
| 20260503211219 | 54 | 334 | 7.0 | 6.0 | 0.00 | 0.00 | 0.00 | 53 | 1006.0 |
| 20260503210720 | 54 | 78 | 1.0 | 7.0 | 0.00 | 0.00 | 0.00 | 55 | 1006.0 |
| 20260503210220 | 54 | 77 | 2.0 | 5.0 | 0.00 | 0.00 | 0.00 | 52 | 1006.0 |
| 20260503205719 | 54 | 249 | 8.0 | 5.0 | 0.00 | 0.00 | 0.00 | 48 | 1006.0 |
| 20260503205219 | 55 | 54 | 3.0 | 6.0 | 0.00 | 0.00 | 0.00 | 50 | 1006.0 |
| 20260503204719 | 54 | 227 | 9.0 | 14.0 | 0.00 | 0.00 | 0.00 | 51 | 1006.0 |
| 20260503204219 | 54 | 108 | 2.0 | 6.0 | 0.00 | 0.00 | 0.00 | 52 | 1006.0 |
| 20260503203720 | 54 | 142 | 5.0 | 8.0 | 0.00 | 0.00 | 0.00 | 54 | 1006.0 |
| 20260503203219 | 54 | 84 | 6.0 | 5.0 | 0.00 | 0.00 | 0.00 | 52 | 1006.0 |
| 20260503202719 | 54 | 245 | 4.0 | 17.0 | 0.00 | 0.00 | 0.00 | 53 | 1006.0 |
| 20260503202219 | 55 | 41 | 4.0 | 5.0 | 0.00 | 0.00 | 0.00 | 54 | 1006.0 |
| 20260503201720 | 54 | 306 | 3.0 | 11.0 | 0.00 | 0.00 | 0.00 | 54 | 1006.0 |
| 20260503201219 | 56 | 259 | 6.0 | 4.0 | 0.00 | 0.00 | 0.00 | 50 | 1006.0 |
| 20260503200721 | 56 | 262 | 3.0 | 7.0 | 0.00 | 0.00 | 0.00 | 51 | 1006.0 |
| 20260503200220 | 56 | 9 | 4.0 | 10.0 | 0.00 | 0.00 | 0.00 | 54 | 1006.0 |
| 20260503195719 | 58 | 91 | 3.0 | 13.0 | 0.00 | 0.00 | 0.00 | 48 | 1007.0 |
| 20260503195219 | 59 | 227 | 3.0 | 6.0 | 0.00 | 0.00 | 0.00 | 50 | 1007.0 |
| 20260503194720 | 57 | 340 | 2.0 | 7.0 | 0.00 | 0.00 | 0.00 | 51 | 1007.0 |
| 20260503194220 | 57 | 243 | 5.0 | 4.0 | 0.00 | 0.00 | 0.00 | 49 | 1007.0 |
| 20260503193720 | 54 | 297 | 3.0 | 9.0 | 0.00 | 0.00 | 0.00 | 52 | 1007.0 |
| 20260503193219 | 56 | 52 | 7.0 | 8.0 | 0.00 | 0.00 | 0.00 | 52 | 1007.0 |
| 20260503192720 | 56 | 58 | 3.0 | 5.0 | 0.00 | 0.00 | 0.00 | 54 | 1007.0 |
| 20260503192220 | 56 | 314 | 4.0 | 5.0 | 0.00 | 0.00 | 0.00 | 51 | 1007.0 |
| 20260503191720 | 56 | 36 | 5.0 | 8.0 | 0.00 | 0.00 | 0.00 | 53 | 1007.0 |
| 20260503191219 | 55 | 265 | 3.0 | 11.0 | 0.00 | 0.00 | 0.00 | 52 | 1007.0 |
| 20260503190719 | 54 | 32 | 4.0 | 9.0 | 0.00 | 0.00 | 0.00 | 54 | 1007.0 |
| 20260503190219 | 54 | 79 | 2.0 | 10.0 | 0.00 | 0.00 | 0.00 | 54 | 1007.0 |
| 20260503185719 | 55 | 66 | 2.0 | 7.0 | 0.00 | 0.00 | 0.00 | 50 | 1008.0 |
| 20260503185219 | 55 | 336 | 1.0 | 12.0 | 0.00 | 0.00 | 0.00 | 52 | 1008.0 |
| 20260503184720 | 54 | 24 | 3.0 | 15.0 | 0.00 | 0.00 | 0.00 | 54 | 1008.0 |
| 20260503184220 | 55 | 258 | 2.0 | 3.0 | 0.00 | 0.00 | 0.00 | 51 | 1008.0 |
| 20260503183721 | 55 | 265 | 5.0 | 2.0 | 0.00 | 0.00 | 0.00 | 46 | 1008.0 |
| 20260503183222 | 54 | 341 | 3.0 | 11.0 | 0.00 | 0.00 | 0.00 | 45 | 1008.0 |
| 20260503182720 | 56 | 3 | 2.0 | 6.0 | 0.00 | 0.00 | 0.00 | 41 | 1008.0 |
| 20260503182220 | 56 | 108 | 4.0 | 5.0 | 0.00 | 0.00 | 0.00 | 40 | 1008.0 |
| 20260503181720 | 58 | 30 | 0.0 | 5.0 | 0.00 | 0.00 | 0.00 | 41 | 1008.0 |
| 20260503181221 | 57 | 272 | 6.0 | 6.0 | 0.00 | 0.00 | 0.00 | 39 | 1008.0 |
| 20260503180720 | 58 | 264 | 6.0 | 7.0 | 0.00 | 0.00 | 0.00 | 38 | 1008.0 |
| 20260503180220 | 59 | 327 | 0.0 | 5.0 | 0.00 | 0.00 | 0.00 | 37 | 1008.0 |
| 20260503175719 | 57 | 33 | 3.0 | 3.0 | 0.00 | 0.00 | 0.00 | 37 | 1009.0 |
| 20260503175220 | 57 | 322 | 4.0 | 9.0 | 0.00 | 0.00 | 0.00 | 40 | 1009.0 |
| 20260503174721 | 57 | 243 | 2.0 | 8.0 | 0.00 | 0.00 | 0.00 | 41 | 1009.0 |
| 20260503174219 | 56 | 332 | 5.0 | 7.0 | 0.00 | 0.00 | 0.00 | 42 | 1009.0 |
| 20260503173719 | 56 | 27 | 3.0 | 6.0 | 0.00 | 0.00 | 0.00 | 40 | 1009.0 |
| 20260503173221 | 55 | 293 | 2.0 | 5.0 | 0.00 | 0.00 | 0.00 | 40 | 1009.0 |
| 20260503172721 | 55 | 349 | 6.0 | 7.0 | 0.00 | 0.00 | 0.00 | 37 | 1009.0 |
| 20260503172222 | 56 | 284 | 5.0 | 6.0 | 0.00 | 0.00 | 0.00 | 37 | 1009.0 |
| 20260503171719 | 55 | 40 | 4.0 | 5.0 | 0.00 | 0.00 | 0.00 | 45 | 1009.0 |
| 20260503171219 | 55 | 45 | 3.0 | 14.0 | 0.00 | 0.00 | 0.00 | 40 | 1009.0 |
| 20260503170720 | 57 | 11 | 2.0 | 4.0 | 0.00 | 0.00 | 0.00 | 39 | 1009.0 |
| 20260503170222 | 55 | 25 | 2.0 | 0.0 | 0.00 | 0.00 | 0.00 | 48 | 1009.0 |
| 20260503150724 | 51 | 26 | 5.0 | 7.0 | 0.00 | 0.00 | 0.00 | 67 | 1010.0 |
| 20260503150221 | 51 | 257 | 6.0 | 5.0 | 0.00 | 0.00 | 0.00 | 69 | 1010.0 |
| 20260503140222 | 51 | 113 | 4.0 | 2.0 | 0.00 | 0.00 | 0.00 | 65 | 1010.0 |
| 20260503131221 | 51 | 146 | 3.0 | 3.0 | 0.00 | 0.00 | 0.00 | 60 | 1010.0 |
| 20260503130721 | 50 | 41 | 1.0 | 6.0 | 0.00 | 0.00 | 0.00 | 60 | 1010.0 |
| 20260503130220 | 52 | 72 | 3.0 | 4.0 | 0.00 | 0.00 | 0.00 | 59 | 1010.0 |
| 20260503120219 | 45 | 71 | 2.0 | 4.0 | 0.00 | 0.00 | 0.00 | 70 | 1010.0 |
| 20260503110725 | 39 | 70 | 2.0 | 2.0 | 0.00 | 0.00 | 0.00 | 83 | 1010.0 |
| 20260503110220 | 38 | 53 | 0.0 | 0.0 | 0.00 | 0.00 | 0.00 | 84 | 1010.0 |
| 20260503100222 | 35 | 68 | 0.0 | 0.0 | 0.00 | 0.00 | 0.00 | 89 | 1009.0 |
| 20260503090221 | 34 | 48 | 0.0 | 2.0 | 0.00 | 0.00 | 0.00 | 88 | 1010.0 |
| 20260503081223 | 35 | 90 | 0.0 | 2.0 | 0.00 | 0.00 | 0.00 | 87 | 1010.0 |
| 20260503080721 | 35 | 61 | 0.0 | 0.0 | 0.00 | 0.00 | 0.00 | 87 | 1010.0 |
| 20260503080221 | 35 | 70 | 0.0 | 0.0 | 0.00 | 0.00 | 0.00 | 87 | 1010.0 |
| 20260503072723 | 35 | 60 | 0.0 | 0.0 | 0.00 | 0.00 | 0.00 | 88 | 1010.0 |
| 20260503072223 | 36 | 58 | 0.0 | 1.0 | 0.00 | 0.00 | 0.00 | 87 | 1010.0 |
| 20260503071720 | 36 | 223 | 0.0 | 2.0 | 0.00 | 0.00 | 0.00 | 86 | 1010.0 |
| 20260503071220 | 36 | 69 | 1.0 | 2.0 | 0.00 | 0.00 | 0.00 | 87 | 1010.0 |
| 20260503070720 | 36 | 62 | 0.0 | 0.0 | 0.00 | 0.00 | 0.00 | 88 | 1010.0 |
| 20260503070223 | 37 | 62 | 0.0 | 0.0 | 0.00 | 0.00 | 0.00 | 86 | 1010.0 |
| 20260503060220 | 35 | 63 | 0.0 | 0.0 | 0.00 | 0.00 | 0.00 | 91 | 1010.0 |
| 20260503054720 | 36 | 62 | 1.0 | 1.0 | 0.00 | 0.00 | 0.00 | 90 | 1011.0 |
| 20260503054222 | 36 | 73 | 1.0 | 2.0 | 0.00 | 0.00 | 0.00 | 89 | 1011.0 |
| 20260503053720 | 36 | 60 | 0.0 | 0.0 | 0.00 | 0.00 | 0.00 | 89 | 1011.0 |
| 20260503053219 | 36 | 62 | 1.0 | 2.0 | 0.00 | 0.00 | 0.00 | 89 | 1011.0 |
| 20260503052720 | 37 | 89 | 2.0 | 1.0 | 0.00 | 0.00 | 0.00 | 89 | 1011.0 |
| 20260503052223 | 37 | 72 | 1.0 | 2.0 | 0.00 | 0.00 | 0.00 | 88 | 1011.0 |
| 20260503051720 | 37 | 89 | 1.0 | 2.0 | 0.00 | 0.00 | 0.00 | 88 | 1011.0 |
| 20260503051221 | 37 | 54 | 1.0 | 1.0 | 0.00 | 0.00 | 0.00 | 87 | 1011.0 |
| 20260503050723 | 37 | 66 | 0.0 | 0.0 | 0.00 | 0.00 | 0.00 | 87 | 1011.0 |
| 20260503050223 | 37 | 89 | 0.0 | 0.0 | 0.00 | 0.00 | 0.00 | 87 | 1011.0 |
| 20260503045719 | 37 | 88 | 0.0 | 0.0 | 0.00 | 0.00 | 0.00 | 87 | 1011.0 |
| 20260503045220 | 37 | 62 | 0.0 | 0.0 | 0.00 | 0.00 | 0.00 | 87 | 1011.0 |
| 20260503044719 | 37 | 60 | 0.0 | 0.0 | 0.00 | 0.00 | 0.00 | 86 | 1011.0 |
| 20260503044219 | 37 | 60 | 0.0 | 0.0 | 0.00 | 0.00 | 0.00 | 86 | 1011.0 |
| 20260503043719 | 37 | 72 | 0.0 | 0.0 | 0.00 | 0.00 | 0.00 | 85 | 1011.0 |
| 20260503043220 | 37 | 69 | 0.0 | 0.0 | 0.00 | 0.00 | 0.00 | 85 | 1011.0 |
| 20260503042720 | 37 | 61 | 0.0 | 0.0 | 0.00 | 0.00 | 0.00 | 86 | 1011.0 |
| 20260503042219 | 38 | 71 | 0.0 | 0.0 | 0.00 | 0.00 | 0.00 | 84 | 1011.0 |
| 20260503041719 | 38 | 70 | 0.0 | 0.0 | 0.00 | 0.00 | 0.00 | 85 | 1011.0 |
| 20260503041220 | 38 | 58 | 0.0 | 0.0 | 0.00 | 0.00 | 0.00 | 84 | 1011.0 |
| 20260503040721 | 38 | 60 | 0.0 | 2.0 | 0.00 | 0.00 | 0.00 | 83 | 1011.0 |
| 20260503040220 | 38 | 82 | 0.0 | 0.0 | 0.00 | 0.00 | 0.00 | 83 | 1011.0 |
| 20260503035720 | 39 | 82 | 0.0 | 0.0 | 0.00 | 0.00 | 0.00 | 82 | 1011.0 |
| 20260503035219 | 39 | 82 | 0.0 | 0.0 | 0.00 | 0.00 | 0.00 | 81 | 1011.0 |
| 20260503034720 | 39 | 77 | 2.0 | 4.0 | 0.00 | 0.00 | 0.00 | 81 | 1011.0 |
| 20260503034220 | 40 | 83 | 1.0 | 2.0 | 0.00 | 0.00 | 0.00 | 80 | 1011.0 |
| 20260503033720 | 40 | 61 | 1.0 | 2.0 | 0.00 | 0.00 | 0.00 | 81 | 1011.0 |
| 20260503033220 | 40 | 60 | 0.0 | 0.0 | 0.00 | 0.00 | 0.00 | 81 | 1011.0 |
| 20260503032720 | 40 | 58 | 1.0 | 3.0 | 0.00 | 0.00 | 0.00 | 80 | 1011.0 |
| 20260503032221 | 40 | 79 | 0.0 | 2.0 | 0.00 | 0.00 | 0.00 | 80 | 1011.0 |
| 20260503031720 | 40 | 60 | 0.0 | 2.0 | 0.00 | 0.00 | 0.00 | 79 | 1011.0 |
| 20260503031220 | 40 | 59 | 2.0 | 1.0 | 0.00 | 0.00 | 0.00 | 79 | 1011.0 |
| 20260503030719 | 40 | 67 | 0.0 | 2.0 | 0.00 | 0.00 | 0.00 | 78 | 1011.0 |
| 20260503030219 | 40 | 65 | 1.0 | 3.0 | 0.00 | 0.00 | 0.00 | 78 | 1011.0 |
| 20260503025721 | 40 | 84 | 0.0 | 1.0 | 0.00 | 0.00 | 0.00 | 78 | 1011.0 |
| 20260503025220 | 40 | 62 | 0.0 | 0.0 | 0.00 | 0.00 | 0.00 | 77 | 1011.0 |
| 20260503024721 | 40 | 72 | 0.0 | 0.0 | 0.00 | 0.00 | 0.00 | 77 | 1011.0 |
| 20260503024221 | 40 | 96 | 3.0 | 2.0 | 0.00 | 0.00 | 0.00 | 76 | 1011.0 |
| 20260503023719 | 40 | 64 | 1.0 | 2.0 | 0.00 | 0.00 | 0.00 | 75 | 1011.0 |
| 20260503023219 | 40 | 82 | 3.0 | 3.0 | 0.00 | 0.00 | 0.00 | 74 | 1011.0 |
| 20260503022721 | 40 | 61 | 0.0 | 0.0 | 0.00 | 0.00 | 0.00 | 75 | 1011.0 |
| 20260503022219 | 40 | 140 | 3.0 | 5.0 | 0.00 | 0.00 | 0.00 | 73 | 1011.0 |
| 20260503021721 | 41 | 64 | 2.0 | 5.0 | 0.00 | 0.00 | 0.00 | 72 | 1011.0 |
| 20260503021220 | 41 | 89 | 2.0 | 4.0 | 0.00 | 0.00 | 0.00 | 73 | 1011.0 |
| 20260503020719 | 41 | 210 | 1.0 | 2.0 | 0.00 | 0.00 | 0.00 | 73 | 1011.0 |
| 20260503020220 | 41 | 68 | 0.0 | 0.0 | 0.00 | 0.00 | 0.00 | 74 | 1011.0 |
| 20260503015719 | 41 | 63 | 0.0 | 0.0 | 0.00 | 0.00 | 0.00 | 73 | 1011.0 |
| 20260503015219 | 41 | 30 | 0.0 | 0.0 | 0.00 | 0.00 | 0.00 | 69 | 1011.0 |
| 20260503014720 | 41 | 72 | 0.0 | 0.0 | 0.00 | 0.00 | 0.00 | 69 | 1011.0 |
| 20260503014219 | 41 | 47 | 0.0 | 0.0 | 0.00 | 0.00 | 0.00 | 69 | 1011.0 |
| 20260503013721 | 41 | 63 | 0.0 | 0.0 | 0.00 | 0.00 | 0.00 | 70 | 1011.0 |
| 20260503013220 | 41 | 48 | 0.0 | 0.0 | 0.00 | 0.00 | 0.00 | 69 | 1011.0 |
| 20260503012722 | 41 | 81 | 0.0 | 0.0 | 0.00 | 0.00 | 0.00 | 72 | 1011.0 |
| 20260503012220 | 41 | 51 | 0.0 | 1.0 | 0.00 | 0.00 | 0.00 | 72 | 1011.0 |
| 20260503011721 | 41 | 42 | 0.0 | 0.0 | 0.00 | 0.00 | 0.00 | 73 | 1011.0 |
| 20260503011221 | 41 | 44 | 0.0 | 0.0 | 0.00 | 0.00 | 0.00 | 71 | 1011.0 |
| 20260503010721 | 41 | 91 | 0.0 | 2.0 | 0.00 | 0.00 | 0.00 | 72 | 1011.0 |